Location: Peebles
(55.6412°N, 3.1714°W)
Time: 19:41:31
(UTC+00:00)

Cosmos 1339 Rocket - Visible Passes

Search period start: 19 January 2022 00:00
Search period end: 29 January 2022 00:00
Orbit: 942 x 1005 km, 82.9° (Epoch: 19 January)

Date Brightness Start Highest point End Pass type
(mag) Time Alt. Az. Time Alt. Az. Time Alt. Az.
19 Jan 7.0 04:16:32 10° N 04:20:34 17° NE 04:24:33 10° E visible
19 Jan 5.0 06:01:06 10° N 06:07:23 61° ENE 06:13:33 10° SSE visible
19 Jan 5.7 17:56:15 10° ESE 18:00:27 19° ENE 18:04:38 10° NE visible
19 Jan 4.4 19:38:25 10° S 19:44:49 77° E 19:51:14 10° NNE visible
19 Jan 6.2 21:25:27 10° WSW 21:30:53 28° WNW 21:36:21 10° N visible
20 Jan 6.5 04:41:01 10° N 04:46:07 25° ENE 04:51:07 10° ESE visible
20 Jan 4.5 06:26:01 10° NNW 06:32:23 88° W 06:38:36 10° S visible
20 Jan 5.3 18:19:34 10° SE 18:24:53 29° E 18:30:13 10° NNE visible
20 Jan 4.7 20:03:22 10° SSW 20:09:46 71° WNW 20:16:11 10° N visible
20 Jan 6.7 21:51:50 10° W 21:56:22 20° NW 22:00:55 10° N visible
21 Jan 7.3 03:22:39 10° NNE 03:23:55 11° NE 03:25:11 10° NE visible
21 Jan 5.9 05:05:42 10° N 05:11:29 36° ENE 05:17:09 10° SE visible
21 Jan 4.6 06:51:03 10° NNW 06:57:13 58° W 07:03:16 10° S visible
21 Jan 4.8 18:43:29 10° SSE 18:49:29 44° E 18:55:28 10° NNE visible
21 Jan 5.4 20:28:42 10° SW 20:34:52 47° WNW 20:41:02 10° N visible
21 Jan 7.1 22:18:53 10° WNW 22:22:02 14° NW 22:25:11 10° NNW visible
22 Jan 7.1 03:46:08 10° NNE 03:49:42 15° NE 03:53:12 10° E visible
22 Jan 5.2 05:30:30 10° N 05:36:42 54° ENE 05:42:45 10° SSE visible
22 Jan 5.0 07:16:12 10° NNW 07:21:54 37° W 07:27:29 10° SSW visible
22 Jan 5.9 17:26:19 10° ESE 17:30:01 16° ENE 17:33:41 10° NE visible
22 Jan 4.4 19:07:53 10° S 19:14:14 68° E 19:20:34 10° NNE visible
22 Jan 6.1 20:54:28 10° SW 21:00:07 32° WNW 21:05:47 10° N visible
23 Jan 6.7 04:10:32 10° N 04:15:18 22° NE 04:20:00 10° ESE visible
23 Jan 4.6 05:55:23 10° N 06:01:44 81° ENE 06:07:56 10° SSE visible
23 Jan 5.4 17:49:22 10° SE 17:54:23 25° E 17:59:25 10° NNE visible
23 Jan 4.6 19:32:41 10° SSW 19:39:07 81° W 19:45:32 10° N visible
23 Jan 6.6 21:20:42 10° WSW 21:25:33 22° NW 21:30:24 10° N visible
24 Jan 6.1 04:35:09 10° N 04:40:44 32° ENE 04:46:11 10° ESE visible
24 Jan 4.4 06:20:23 10° NNW 06:26:37 66° W 06:32:43 10° S visible
24 Jan 5.0 18:13:07 10° SSE 18:18:56 38° E 18:24:45 10° NNE visible
24 Jan 5.2 19:57:55 10° SSW 20:04:10 53° WNW 20:10:25 10° N visible
24 Jan 7.1 21:47:31 10° W 21:51:09 15° NW 21:54:47 10° NNW visible
25 Jan 7.2 03:15:48 10° NNE 03:18:48 13° NE 03:21:46 10° ENE visible
25 Jan 5.4 04:59:55 10° N 05:05:59 47° ENE 05:11:55 10° SE visible
25 Jan 4.8 06:45:29 10° NNW 06:51:20 42° W 06:57:05 10° SSW visible
25 Jan 4.5 18:37:23 10° S 18:43:39 59° E 18:49:53 10° NNE visible
25 Jan 5.9 20:23:33 10° SW 20:29:22 36° WNW 20:35:12 10° N visible
25 Jan 7.4 22:15:32 10° NW 22:16:55 11° NW 22:18:18 10° NNW visible
26 Jan 6.8 03:40:02 10° N 03:44:27 19° NE 03:48:48 10° E visible
26 Jan 4.7 05:24:46 10° N 05:31:05 72° ENE 05:37:14 10° SSE visible
26 Jan 5.3 07:10:46 10° NNW 07:15:55 27° W 07:20:58 10° SW visible
26 Jan 5.6 17:19:15 10° SE 17:23:55 22° ENE 17:28:35 10° NNE visible
26 Jan 4.5 19:02:04 10° S 19:08:29 89° E 19:14:53 10° NNE visible
26 Jan 6.5 20:49:37 10° WSW 20:54:45 25° WNW 20:59:52 10° N visible
27 Jan 6.3 04:04:37 10° N 04:09:57 28° ENE 04:15:10 10° ESE visible
27 Jan 4.4 05:49:43 10° NNW 05:56:01 76° W 06:02:08 10° S visible
27 Jan 5.1 17:42:49 10° SSE 17:48:25 34° E 17:54:00 10° NNE visible
27 Jan 5.0 19:27:10 10° SSW 19:33:30 61° WNW 19:39:48 10° N visible
27 Jan 7.0 21:16:14 10° W 21:20:17 17° NW 21:24:20 10° N visible
28 Jan 7.3 02:45:36 10° NNE 02:47:54 12° NE 02:50:10 10° ENE visible
28 Jan 5.6 04:29:20 10° N 04:35:15 41° ENE 04:41:02 10° SE visible
28 Jan 4.6 06:14:47 10° NNW 06:20:46 49° W 06:26:38 10° SSW visible
28 Jan 4.7 18:06:56 10° SSE 18:13:04 52° E 18:19:12 10° NNE visible
28 Jan 5.8 19:52:40 10° SW 19:58:39 40° WNW 20:04:36 10° N visible
28 Jan 7.3 21:43:43 10° WNW 21:46:00 12° NW 21:48:18 10° NNW visible
